Regional Weather Roundup
Issued by NWS Wakefield, VA

Home | Current Version | Previous Version | Text Only | Print | Product List | Glossary Off
Versions: 1 2 3 4 5 6 7 8 9 10 11 12 13 14 15 16 17 18 19 20 21 22 23 24 25 26 27 28 29 30 31 32 33 34 35 36 37 38 39 40 41 42 43 44 45 46 47 48 49 50

000
ASUS41 KAKQ 172014
RWRAKQ

REGIONAL WEATHER ROUNDUP
NATIONAL WEATHER SERVICE WAKEFIELD VA
400 PM EDT FRI APR 17 2015

Note: "fair" indicates few or no clouds below 12,000 feet with no
significant weather and/or obstructions to visibility. * = Denotes
station may not report precipitation (e.g., rain,snow,etc.),
thunder or fog.

VAZ042-051-052>054-056-172100-
NORTHERN VIRGINIA

CITY           SKY/WX    TMP DP  RH WIND       PRES   REMARKS
WASH NATIONAL  PTSUNNY   78  60  53 SE3       29.96F
DULLES         PTSUNNY   77  57  50 N5        29.96F
FORT BELVOIR   MOSUNNY   77  58  51 S5        29.96F
QUANTICO       MOSUNNY   72  61  68 S7        29.97F
FREDERICKSBRG* MOSUNNY   81  57  44 SE7       29.95F
STAFFORD*      MOSUNNY   78  56  46 NE8       30.00F
WARRENTON      PTSUNNY   80  58  46 SE3       29.95F
CULPEPER*      MOSUNNY   82  57  42 CALM      29.96F
MANASSAS*      MOSUNNY   77  59  53 NE9       29.96F
LEESBURG*      PTSUNNY   77  59  53 N6        29.97F
WINCHESTER     CLOUDY    77  50  38 W3        29.97F
FRONT ROYAL*   CLOUDY    72  61  68 W3        29.97F
LURAY*         DRIZZLE   73  61  64 W3        29.98F
$$

VAZ048-049-060>072-079>083-172100-
CENTRAL AND SOUTH CENTRAL VIRGINIA

CITY           SKY/WX    TMP DP  RH WIND       PRES   REMARKS
RICHMOND       PTSUNNY   78  57  48 W5        29.98F
CHESTERFIELD*  NOT AVBL
PETERSBURG*    CLOUDY    80  57  46 SW9       29.99F
HANOVER        MOSUNNY   78  56  46 W3        29.98F
TAPPAHANNOCK*  PTSUNNY   77  54  45 CALM      29.99F
QUINTON*       CLOUDY    76  60  57 S3        29.98F
CHARLOTTSVILLE RAIN      73  60  63 NE9       29.96F
GORDONSVILLE*  FAIR      79  56  44 S5        29.95F
ORANGE*        PTSUNNY   77  55  47 NE3       29.98F
LOUISA*        MOSUNNY   81  57  44 W6        29.95F
BUMPASS*       FAIR      77  57  49 CALM      29.96F
FARMVILLE*     MOSUNNY   80  59  47 SW7       29.96F
CREWE*         MOCLDY    78  58  50 SW6       29.98F
FORT PICKETT*  MOCLDY    78  60  52 SW6       29.99F
CHASE CITY*    FAIR      77  63  62 CALM      30.00F
CLARKSVILLE*   FAIR      77  61  57 CALM      29.99F
SOUTH HILL*    PTSUNNY   74  61  64 SW6       30.06F
LAWRENCEVILLE* FAIR      75  61  61 SW5       30.00F
EMPORIA*       PTSUNNY   73  61  64 S6        30.01F
$$

VAZ088>098-172100-
SOUTHEAST VIRGINIA

CITY           SKY/WX    TMP DP  RH WIND       PRES   REMARKS
NORFOLK        CLOUDY    76  59  55 SW10      29.99F
VIRGINIA BEACH CLOUDY    77  61  57 S8        29.99F
NORFOLK NAVAL  MOSUNNY   80  61  52 S8        30.01F
WEST POINT*    PTSUNNY   79  57  46 SW8       30.00F
SALUDA*        CLOUDY    75  61  61 CALM      29.99F
NEWPORT NEWS   MOSUNNY   80  61  52 S12       30.00F
LANGLEY AFB    PTSUNNY   75  62  63 S12       29.98F
FORT EUSTIS    PTSUNNY   75  60  60 S8        29.98F
WILLIAMSBURG*  MOSUNNY   79  63  57 S7        30.00F
HR EXEC AP*    MOCLDY    75  63  64 S6        30.01F
FRANKLIN*      MOSUNNY  N/A N/A N/A S7        30.00F
WAKEFIELD      CLOUDY    77  61  57 SW10      29.99F
$$

VAZ020-022-025-037-045-172100-
WEST CENTRAL AND SOUTHWEST VIRGINIA

CITY           SKY/WX    TMP DP  RH WIND       PRES   REMARKS
STAUNTON*      LGT RAIN  64  60  86 NE9       30.03R
WAYNESBORO*    MOCLDY    75  56  51 N13       30.00F
HOT SPRINGS VA CLOUDY    66  50  55 NW10      30.08F
LYNCHBURG      MOSUNNY   78  55  44 VRB6      30.00F
DANVILLE       MOSUNNY   78  58  49 VRB5      30.00F
SOUTH BOSTON*  FAIR      78  59  52 S6        30.00F
MARTINSVILLE   MOSUNNY   81  58  45 S5        30.02F
ROANOKE        PTSUNNY   77  54  44 SW8       30.01F
BLACKSBURG     PTSUNNY   74  51  45 NW9       30.07F
DUBLIN*        PTSUNNY   74  55  51 NE5       30.05F
MARION*        MOSUNNY   74  51  44 SW10      30.08F
HILLSVILLE*    MOSUNNY   71  53  51 SW8       30.06F
RICHLANDS*     FAIR      70  48  46 W7        30.08F
WISE*          PTSUNNY   72  46  40 CALM      30.10F
ABINGDON*      PTSUNNY   74  53  48 W3        30.07F
$$

MDZ021>025-VAZ099-100-172100-
SOUTHERN MARYLAND AND THE DELMARVA PENINSULA

CITY           SKY/WX    TMP DP  RH WIND       PRES   REMARKS
PATUXENT RIVER MOSUNNY   69  59  70 SE12      29.98F
BAY BRIDGE APT   N/A     73  55  53 SE10      29.97F
LEONARDTOWN    MOSUNNY   75  54  46 SW7       29.99F
DOVER          PTSUNNY   74  62  66 SW10      29.94F
GEORGETOWN     PTSUNNY   74  59  59 S15G21    29.98F
EASTON         SUNNY     75  61  60 SW8       30.01F
CAMBRIDGE      MOSUNNY   77  59  53 SW5       29.97F
SALISBURY      CLOUDY    74  59  59 SW10G17   29.99F
OCEAN CITY     CLOUDY    65  58  78 S9        30.00F
WALLOPS ISLAND PTSUNNY   67  60  78 S13       30.01F
ACCOMACK*      CLOUDY    73  59  60 SW8       30.00F
$$

NCZ012>017-030>032-172100-
NORTH CENTRAL AND EASTERN NORTH CAROLINA

CITY           SKY/WX    TMP DP  RH WIND       PRES   REMARKS
ROANOKE RAPIDS MOCLDY    73  63  68 SW8       30.00F
RALEIGH        PTSUNNY   77  63  61 SW6       30.02F
ELIZABETH CITY CLOUDY    75  61  61 S5        30.01F
AHOSKIE*       PTSUNNY   74  62  66 CALM      30.01F
EDENTON*       PTSUNNY   74  62  65 W3        30.02F
CURRITUCK*     CLOUDY    76  57  52 SW8       30.02F
KILL DEVIL HLS PTSUNNY   74  60  62 SE5       30.02F
MANTEO         PTSUNNY   73  62  69 S10       30.03F
CAPE HATTERAS  PTSUNNY   70  63  78 S3        30.03F
TARBORO*       MOCLDY    75  64  67 CALM      30.01F
GOLDSBORO      PTSUNNY   75  65  70 CALM      29.99F
WASHINGTON     PTSUNNY   74  63  67 CALM      30.01F
GREENVILLE     PTSUNNY   77  64  65 S3        30.03F
NEW BERN       CLOUDY    75  63  66 S7        30.02F
WILMINGTON     CLOUDY    75  65  70 SE8       30.02F
$$

VAZ048-172100-
ELSEWHERE

CITY           SKY/WX    TMP DP  RH WIND       PRES   REMARKS
HARRISBURG PA  PTSUNNY   74  55  51 W9        29.95F
BALTIMORE      PTSUNNY   77  57  50 W8        29.95F
ANNAPOLIS      PTSUNNY   63  57  81 SE8       29.96F
ANDREWS AFB    PTSUNNY   77  58  51 W5        29.95F
PHILADELPHIA   MOSUNNY   74  57  55 SW9       29.96F
HENDERSON NC   MOSUNNY   77  57  50 SW5       30.00F
GREENSBORO     CLOUDY    72  58  61 S6        30.02F
ROCKY MOUNT    MOSUNNY   75  63  66 SW5       30.01F
$$

VAZ100-172100-
MARINE

STATION/POSITION TIME  TEMP    WIND        PRES    WAVE   SWELL
                       AIR SEA DIR/SP/G            HT/PER HT/PER
                 (UTC) (F)     (DEG/KT/KT) (MB)    (FT/S) (FT/S)
CAPE MAY NJ      1900   67 53  200/  7/ 10 1015.5F
LEWES DE         1900   72 48  260/  9/ 13 1015.6F
15NM E FENWICK I 1950   52 49              1015.7F   4/10
OCEAN-CITY-INLET 1900   55 52  200/ 10/ 13 1016.2F
WACHAPREAGUE VA  1900   69 64  200/ 10/ 14 1016.7F
THOMAS POINT MD  2000   65 54  150/ 11/ 12 1015.3F
GOOSES REEF MD   2000   60 56  180/ 12/ 14   N/A     1/ 2
COVE POINT MD    1900   57     180/  9/ 10 1016.1F
SOLOMONS ISLAND  1900      55                N/A
BISHOPS HEAD MD  1900   67 62  190/ 12/ 15 1016.0F
PINEY POINT MD   1900          360/  7/  7   N/A
CAMBRIDGE MD     1900   72 56  250/  5/  9 1015.9F
LEWISETTA VA     1900   72 60              1015.6F
RAPPAHANNOCK LGT 1900          180/ 13/ 13 1017.1F
STINGRAY PT      2000   59 56  160/  6/  8 1018.0F   1
YORK RVR RNG VA  1900   61     140/  8/ 10 1015.9F
YORKTOWN VA      1900   72 58  230/ 11/ 16 1015.9F
DOMINION TERM VA 1900   69     230/  5/  6 1016.9F
KIPTOPEKE VA     1900      61  180/  8/  9   N/A
CHES BAY BRIDGE  1900   67 56   60/  4/  5 1016.4F
CAPE HENRY VA    1900   67     140/  8/ 11 1015.5F
CHESAPEAKE LGHT  1900   60     170/ 17/ 18 1017.3F
WILLOUBY STN VA  1900   70     230/  5/  5 1017.4F
S CRANEY ISL VA  1900          240/  6/  9 1016.6F
CAPE HENRY BUOY  1928      51                N/A     4/ 8   2/11
1ST LANDING BUOY 2000   60     130/ 10/ 10 1015.7F   2/ 5
OFFSHORE WE BUOY 1911      50                N/A     5/ 8   3/ 8
64NM E OF VA BCH 1950   61 57  180/  6/  8 1016.5F   5/ 8   5/ 8
44056 DUCK FRF   1911      56                N/A     4/ 8   2/11
OREGON INLET NC  1900   66 58  110/  5/  8 1017.5F
HATTERAS NC      1900   73 66  170/  4/  6 1017.3F
DIAMOND SHLS NC  1950   72 75  200/  4/  8 1016.9F   6/ 9   5/ 9
CAPE LOOKOUT NC  2000   69     100/  6/  6 1016.1F
$$



USA.gov is the U.S. government's official web portal to all federal, state and local government web resources and services.